This is the latest recevied weather packets stored in our database for station/object IK2ILW-6. If no packets are shown the sender has not sent any weather packets the latest 10 day(s).
| Time | Temp. | Humidity | Pressure | Rain* | Wind** | Luminosity | Snow |
|---|---|---|---|---|---|---|---|
| 1777732601 | 10.56° C | 68% | 1025 hPa | 0 mm | - | 638 W/m² | - |
| 1777732286 | 10° C | 70% | 1025 hPa | 0 mm | - | 659 W/m² | - |
| 1777731987 | 10° C | 69% | 1025 hPa | 0 mm | - | 664 W/m² | - |
| 1777731688 | 10° C | 72% | 1025.1 hPa | 0 mm | - | 684 W/m² | - |
| 1777731387 | 9.44° C | 71% | 1025.2 hPa | 0 mm | - | 698 W/m² | - |
| 1777731091 | 10° C | 70% | 1025.2 hPa | 0 mm | - | 691 W/m² | - |
| 1777730795 | 10° C | 69% | 1025.2 hPa | 0 mm | - | 701 W/m² | - |
| 1777730500 | 10° C | 70% | 1025.2 hPa | 0 mm | - | 717 W/m² | - |
| 1777730187 | 10° C | 69% | 1025.3 hPa | 0 mm | - | 724 W/m² | - |
| 1777729897 | 10° C | 70% | 1025.3 hPa | 0 mm | - | 726 W/m² | - |
| 1777729600 | 10° C | 71% | 1025.4 hPa | 0 mm | - | 773 W/m² | - |
| 1777729283 | 10° C | 71% | 1025.4 hPa | 0 mm | - | 759 W/m² | - |
| 1777728988 | 10.56° C | 70% | 1025.5 hPa | 0 mm | - | 780 W/m² | - |
| 1777728693 | 10.56° C | 67% | 1025.4 hPa | 0 mm | - | 791 W/m² | - |
| 1777728398 | 10.56° C | 69% | 1025.5 hPa | 0 mm | - | 802 W/m² | - |
| 1777728083 | 10° C | 71% | 1025.5 hPa | 0 mm | - | 805 W/m² | - |
| 1777727788 | 10° C | 70% | 1025.7 hPa | 0 mm | - | 800 W/m² | - |
| 1777727492 | 10.56° C | 71% | 1025.6 hPa | 0 mm | - | 807 W/m² | - |
| 1777727196 | 10° C | 71% | 1025.7 hPa | 0 mm | - | 768 W/m² | - |
| 1777726884 | 9.44° C | 74% | 1025.7 hPa | 0 mm | - | 795 W/m² | - |
| 1777726588 | 9.44° C | 71% | 1025.7 hPa | 0 mm | - | 796 W/m² | - |
| 1777725996 | 9.44° C | 75% | 1025.8 hPa | 0 mm | - | 780 W/m² | - |
| 1777725700 | 10° C | 73% | 1025.8 hPa | 0 mm | - | 802 W/m² | - |
| 1777725384 | 9.44° C | 74% | 1025.9 hPa | 0 mm | - | 784 W/m² | - |
| 1777725089 | 9.44° C | 75% | 1025.8 hPa | 0 mm | - | 809 W/m² | - |
* Rain latest hour (hover to see other rain measurements)
** Current wind speed in m/s (hover to see current wind gust speed)